Location: Cluj-Napoca
(46.7712°N, 23.6236°E)
Time: 18:54:02
(UTC+03:00)

ISS - Pass Details

Date: 23 May 2020
Orbit: 417 x 420 km, 51.6° (Epoch: 26 May)

Event Time Altitude Azimuth Distance (km) Brightness Sun altitude
Rises 01:44:53 0° 294° (WNW) 2,369 0.3 -22.4°
Reaches altitude 10° 01:47:03 10° 288° (WNW) 1,503 -0.8 -22.4°
Enters shadow 01:47:18 12° 286° (WNW) 1,405 -1.0 -22.4°
